Location: Unspecified
(35.7250°N, 0.0000°E)
Time: 07:35:46
(UTC+00:00)

Vanguard 1 Rocket - Pass Details

Date: 21 June 2019
Orbit: 651 x 4225 km, 34.3° (Epoch: 16 July)

Event Time Altitude Azimuth Distance (km) Brightness Sun altitude
Rises 21:13:06 0° 278° (W) 5,464 12.1 -18.6°
Reaches altitude 10° 21:17:29 10° 276° (W) 3,902 11.2 -19.2°
Maximum altitude 21:26:22 67° 196° (SSW) 1,095 7.6 -20.3°
Enters shadow 21:28:33 38° 127° (SE) 1,328 7.7 -20.6°
Drops below altitude 10° 21:31:29 10° 114° (ESE) 2,301 - -21.0°
Sets 21:33:28 0° 111° (ESE) 3,087 - -21.2°
